Regional Weather Roundup
Issued by NWS Newport/Morehead, NC

Current Version | Previous Version | Text Only | Print | Product List | Glossary On
Versions: 1 2 3 4 5 6 7 8 9 10 11 12 13 14 15 16 17 18 19 20 21 22 23 24 25 26 27 28 29 30 31 32 33 34 35 36 37 38 39 40 41 42 43 44 45 46 47 48 49 50
000 ASUS42 KMHX 281325 RWRMHX WEATHER ROUNDUP FOR EASTERN NORTH CAROLINA NATIONAL WEATHER SERVICE NEWPORT/MOREHEAD CITY NC 900 AM EDT WED SEP 28 2016 NOTE: "FAIR" INDICATES FEW OR NO CLOUDS BELOW 12,000 FEET WITH NO SIGNIFICANT WEATHER AND/OR OBSTRUCTIONS TO VISIBILITY NCZ015>017-031-032-045>047-102-103-281400- NORTH COAST CITY SKY/WX TMP DP RH WIND PRES REMARKS EDENTON PTSUNNY 76 71 86 SE3 29.97R ELIZABETH CITY MOSUNNY 74 70 87 CALM 29.97R KITTY HAWK MOSUNNY 77 76 97 NE3 29.96R MANTEO MOSUNNY 75 73 93 NE6 29.97R $$ NCZ045>047-081-094-103-104-281400- CENTRAL COAST CITY SKY/WX TMP DP RH WIND PRES REMARKS FRISCO MOSUNNY 78 73 84 VRB5 29.95R $$ NCZ095-097-098-100-101-281400- SOUTHERN COAST CITY SKY/WX TMP DP RH WIND PRES REMARKS BEAUFORT SUNNY 78 68 71 CALM 29.96R CEDAR ISLAND NOT AVBL JACKSONVILLE MOSUNNY 75 71 87 CALM 29.95S PINEY ISLAND SUNNY N/A N/A N/A CALM 29.95R WILMINGTON PTSUNNY 76 71 85 CALM 29.97R $$ NCZ011>013-027>030-043-044-078>080-089-090>093-098-281400- COASTAL PLAIN CITY SKY/WX TMP DP RH WIND PRES REMARKS AHOSKIE MOSUNNY 71 69 95 S5 29.97R CLINTON SUNNY 73 72 95 CALM 29.95S ELIZABETHTOWN SUNNY 73 72 94 S5 29.96R GOLDSBORO MOSUNNY 73 73 100 S3 29.94R GREENVILLE SUNNY 73 72 94 CALM 29.98S HAVELOCK MOSUNNY 75 72 88 SW3 29.97R KENANSVILLE SUNNY 72 70 94 S3 29.96S KINSTON SUNNY 75 72 88 S6 29.96R NEW BERN SUNNY 75 70 84 CALM 29.97S RICHLANDS SUNNY 74 71 91 S5 29.97R ROCKY MOUNT MOSUNNY 72 71 97 CALM 29.95R WASHINGTON SUNNY 74 69 86 CALM 29.97R WHITEVILLE MOSUNNY 76 70 84 S6 29.95S $$ AMZ130-135-150-152-154-156-158-170-250-252-270-ANZ085-086-088-633-658-670-281400- MARINE OBSERVATIONS STATION/POSITION TIME TEMP WIND PRES WAVE SWELL AIR SEA DIR/SP/G HT/PER HT/PER (UTC) (F) (DEG/KT/KT) (MB) (FT/S) (FT/S) CHESAPEAKE LIGHT NOT AVBL 64 E VA BEACH 1250 74 74 20/ 12/ 14 1014.1 5/ 8 3/ 8 DUCK 1300 74 76 40/ 5/ 7 1014.1 2 E DUCK 1241 76 N/A 4/ 8 2/12 OREGON INLET 1300 75 76 20/ 8/ 10 1014.4 13E OREGON INLT 1300 76 N/A 4/ 8 3/ 8 HATTERAS CG 1300 75 76 360/ 7/ 9 1014.0 DIAMOND BUOY 1250 76 84 360/ 10/ 12 1013.9 4/ 7 3/ 7 CAPE LOOKOUT 1300 77 80/ 2/ 3 1014.0 BEAUFORT LAB 1300 80 76 CALM / 2 1013.8 30 SE NEW RVR IN 1308 80 83 190/ 4/ 6 1014.4 30 SE NEW RVR IN 1255 83 N/A 3/ 7 2/12 27 SE WRIGHTSVLE 1308 80 81 180/ 2/ 4 1014.7 5 SE WRIGHTSVLE 1208 80 80 200/ 2/ 4 1015.3 225 S CAPE HAT 1250 82 83 220/ 8/ 10 1014.9 4/11 3/11 41 SE CHARLESTON 1250 81 82 230/ 4/ 6 1014.0 3/11 3/11 $$

USA.gov is the U.S. government's official web portal to all federal, state and local government web resources and services.